User: anonymous   Login
Location: Bangkok
(13.7500°N, 100.5170°E)
Time: 02:30:34
(UTC+07:00)
Language:

SPOT 1/Viking Rocket - Orbit

View from above orbital plane
View from above orbital plane
View from above satellite
View from above satellite

Ground track
Ground track

The orbit data is extracted from the following two-line orbital elements,

1 16615U 86019C   18147.21940034  .00000023  00000-0  25013-4 0  9997
2 16615  98.5679 215.9199 0012968 110.6071 314.9912 14.31710613688720
Epoch (UTC): 27 May 2018 05:15:56
Eccentricity: 0.0012968
inclination: 98.5679°
perigee height: 777 km
apogee height: 795 km
right ascension of ascending node: 215.9199°
argument of perigee: 110.6071°
revolutions per day: 14.31710613
mean anomaly at epoch: 314.9912°
orbit number at epoch: 68872

The dashed part of the orbit path shows where the satellite is in the earth's shadow,  

DLR